Location: Unspecified
(47.6579°N, 23.5637°E)
Time: 13:14:23
(UTC+02:00)

Envisat - Pass Details

Date: 06 December 2021
Orbit: 764 x 766 km, 98.2° (Epoch: 23 January)

Event Time Altitude Azimuth Distance (km) Brightness Sun altitude
Rises 06:15:53 0° 8° (N) 3,245 6.2 -16.6°
Reaches altitude 10° 06:18:18 10° 1° (N) 2,314 5.3 -16.2°
Maximum altitude 06:23:05 42° 292° (WNW) 1,083 3.3 -15.4°
Drops below altitude 10° 06:27:49 10° 223° (SW) 2,298 5.2 -14.7°
Sets 06:30:13 0° 216° (SW) 3,220 6.0 -14.3°
